[Date Prev][Date Next][Thread Prev][Thread Next] - [Date Index][Thread Index][Author Index]
Latest ISS and STS-114 2line Keps
- Subject: [sarex] Latest ISS and STS-114 2line Keps
- From: "Scott Avery WA6LIE" <wa6lie@xxxxxxx>
- Date: Tue, 26 Jul 2005 13:35:14 -0700
- Seal-Send-Time: Tue, 26 Jul 2005 13:35:14 -0700
STS-114
1 28775U 05026A 05207.80728973 .00667753 12150-4 79728-4 0 30
2 28775 051.6477 058.3463 0056454 342.0966 110.2438 16.30161499 36
ISS (ZARYA)
1 25544U 98067A 05207.77809899 .00009091 00000-0 72707-4 0 00
2 25544 051.6458 058.1527 0003026 162.0554 280.3853 15.71951566381910
73, Scott WA6LIE
----
Via the sarex mailing list at AMSAT.ORG courtesy of AMSAT-NA.
To unsubscribe, send "unsubscribe sarex" to Majordomo@amsat.org
AMSAT Home